1367193625630,0.961497
1367193685630,0.970197
1367193745630,0.972963
1367193805630,0.978741
1367193865630,0.983116
1367193925630,0.985346
1367193985630,0.990144
1367194045630,0.992023
1367194105630,1.00009
1367194165630,0.990104
1367194225630,0.994150
1367194285630,0.996567
1367194345630,0.997427
1367194405630,0.996077
1367194465630,0.981094
1367194525630,0.985809
1367194585630,0.978507
1367194645630,0.964829
1367194705630,0.975729
1367194765630,0.964803
1367194825630,0.973800
1367194885630,0.963166
1367194945630,0.964227
1367195005630,0.957858
1367195065630,0.949667
1367195125630,0.957222
1367195185630,0.959204
1367195245630,0.958100
1367195305630,0.967400
1367195365630,0.957354
1367195425630,0.963750
1367195485630,0.957913
1367195545630,0.952207
1367195605630,0.953866
1367195665630,0.957321
1367195725630,0.959178
1367195785630,0.960559
1367195845630,0.949313
1367195905630,0.952535
1367195965630,0.948826
1367196025630,0.941733
1367196085630,0.951403
1367196145630,0.950853
1367196205630,0.940751
1367196265630,0.934618
1367196325630,0.943564
1367196385630,0.942968
1367196445630,0.937147
1367196505630,0.935908
1367196565630,0.944691
1367196625630,0.937690
1367196685630,0.937554
1367196745630,0.933999
1367196805630,0.938499
1367196865630,0.943973
1367196925630,0.930529
1367196985630,0.936824
1367197045630,0.935718
1367197105630,0.934159
1367197165630,0.931706
1367197225641,0.931014
1367197285641,0.938499
1367197345641,0.933291
1367197405641,0.940294
1367197465641,0.937300
1367197525641,0.938693
1367197585641,0.934012
1367197645641,0.939568
1367197705641,0.932170
1367197765641,0.940549
1367197825641,0.926353
1367197885641,0.940096
1367198425641,0.931204
1367198485641,0.934465
1367198545641,0.932926
1367198605641,0.927850
1367198665641,0.938859
1367198725641,0.927254
1367198785641,0.929247
1367198845641,0.927550
1367198905641,0.927998
1367198965641,0.927375
1367199025641,0.930994
1367199085641,0.930697
1367199145641,0.933475
1367199205641,0.923943
1367199265641,0.932367
1367199325641,0.929121
1367199385641,0.933040
1367199445641,0.930435
1367199505641,0.932738
1367199565641,0.935870
1367199625641,0.931189
1367199685641,0.926408
1367199745641,0.933756
1367199805641,0.931976
1367199865641,0.932137
1367199925641,0.931620
1367199985641,0.926212
1367200045641,0.930989
1367200105641,0.930433
1367200165641,0.938937
1367200225641,0.939484
1367200285641,0.931876
1367200345641,0.932315
1367200405641,0.937619
1367200465641,0.934219
1367200525641,0.935194
1367200585641,0.937444
1367200645641,0.932652
1367200705641,0.936269
1367200765641,0.939929
1367200825652,0.940016
1367200885652,0.944266
1367200945652,0.939949
1367201005652,0.949226
1367201065652,0.953387
1367201125652,0.952743
1367201185652,0.955470
1367201245652,0.951874
1367201305652,0.949889
1367201365652,0.957004
1367201425652,0.962653
1367201485652,0.948547
1367201545652,0.952248
1367201605652,0.947609
1367201665652,0.945573
1367201725652,0.948769
1367201785652,0.936858
1367201845652,0.947257
1367201905652,0.948237
1367201965652,0.927236
1367202025652,0.937368
1367202085652,0.940588
1367202145652,0.927912
1367202205652,0.942194
1367202265652,0.941929
1367202325652,0.948689
1367202385652,0.953602
1367202445652,0.973195
1367202505652,0.983734
1367202565652,1.00572
1367202625652,1.01951
1367202685652,1.01248
1367202745652,1.02121
1367202805652,1.02333
1367202865652,1.00917
1367202925652,1.01417
1367202985652,1.01917
1367203045652,1.01186
1367203105652,1.01300
1367203165652,1.00953
1367203225652,1.01944
1367203285652,1.01549
1367203345652,1.00971
1367203405652,1.00060
1367203465652,0.990493
1367203525652,0.996425
1367203585652,1.00385
1367203645652,1.00539
1367203705652,1.02579
1367203765652,1.02253
1367203825652,1.03131
1367203885652,1.02411
1367203945652,1.02062
1367204005652,1.01813
1367204065652,1.01136
1367204125652,1.00847
1367204185652,1.00356
1367204245652,0.999425
1367204305652,0.994376
1367204365652,0.979855
1367204425663,0.982965
1367204485663,0.982431
1367204545663,0.976447
1367204605663,0.984330
1367204665663,0.975510
1367204725663,0.970955
1367204785663,0.978784
1367204845663,0.973791
1367204905663,0.971451
1367204965663,0.973131
1367205025663,0.976825
1367205085663,0.982961
1367205145663,0.984005
1367205205663,0.997217
1367205265663,0.998237
1367205325663,1.03308
1367205385663,1.03633
1367205445663,1.04842
1367205505663,1.05763
1367205565663,1.05366
1367205625663,1.05251
1367205685663,1.04878
1367205745663,1.03026
1367205805663,1.01714
1367205865663,1.00893
1367205925663,1.00393
1367205985663,0.995516
1367206045663,0.992799
1367206105663,0.978167
1367206165663,0.979542
1367206225663,0.975681
1367206285663,0.970869
1367206345663,0.961732
1367206405663,0.969806
1367206465663,0.960520
1367206525663,0.966360
1367206585663,0.964911
1367206645663,0.956570
1367206705663,0.966487
1367206765663,0.964862
1367206825663,0.967916
1367206885663,0.968606
1367206945663,0.970176
1367207005663,0.978598
1367207065663,0.984083
1367207125663,0.991734
1367207185663,0.989262
1367207245663,0.986984
1367207305663,0.992045
1367207365663,0.993682
1367207425663,1.00267
1367207485663,0.994154
1367207545663,0.992277
1367207605663,0.989109
1367207665663,0.986004
1367207725663,0.980738
1367207785663,0.981441
1367207845663,0.983017
1367207905663,0.983370
1367207965663,0.977205
1367208025674,0.970964
1367208085674,0.974544
1367208145674,0.980626
1367208205674,0.980914
1367208265674,0.984155
1367208325674,0.974342
1367208385674,0.982120
1367208445674,0.990868
1367208505674,0.988533
1367208565674,0.986099
1367208625674,0.994582
1367208685674,0.989556
1367208745674,0.992646
1367208805674,0.988252
1367208865674,0.985214
1367208925674,0.993081
1367208985674,0.988549
1367209045674,0.999796
1367209105674,1.00077
1367209165674,1.00385
1367209225674,0.999576
1367209285674,0.999839
1367209345674,1.00995
1367209405674,1.01480
1367209465674,1.01322
1367209525674,1.01582
1367209585674,1.02714
1367209645674,1.01171
1367209705674,1.01810
1367209765674,1.01972
1367209825674,1.00117
1367209885674,0.997888
1367209945674,0.995874
1367210005674,0.997322
1367210065674,0.997104
1367210125674,0.998339
1367210185674,0.996731
1367210245674,0.997467
1367210305674,0.994149
1367210365674,0.998461
1367210425674,0.998064
1367210485674,0.994230
1367210545674,0.996966
1367210605674,0.989749
1367210665674,0.994388
1367210725674,0.985939
1367210785674,0.994519
1367210845674,0.992256
1367210905674,1.01083
1367210965674,1.00699
1367211025674,1.00316
1367211085674,1.01882
1367211145674,1.00781
1367211205674,1.00930
1367211265674,1.00802
1367211325674,1.01363
1367211385674,1.01484
1367211445674,1.00736
1367211505674,1.01736
1367211565674,1.01669
1367211625684,1.01080
1367211685684,1.00631
1367211745684,1.02335
1367211805684,1.01875
1367211865684,1.01498
1367211925684,1.02550
1367211985684,1.02514
1367212045684,1.02914
1367212105684,1.03492
1367212165684,1.04306
1367212225684,1.04508
1367212285684,1.06259
1367212345684,1.05968
1367212405684,1.07208
1367212465684,1.07976
1367212525684,1.07815
1367212585684,1.08338
1367212645684,1.10386
1367212705684,1.09790
1367212765684,1.11332
1367212825684,1.11561
1367212885684,1.11802
1367212945684,1.10935
1367213005684,1.11967
1367213065684,1.12193
1367213125684,1.11147
1367213185684,1.11450
1367213245684,1.10855
1367213305684,1.09562
1367213365684,1.09597
1367213425684,1.09606
1367213485684,1.08861
1367213545684,1.09379
1367213605684,1.08063
1367213665684,1.08746
1367213725684,1.08960
1367213785684,1.08364
1367213845684,1.07830
1367213905684,1.06888
1367213965684,1.08090
1367214025684,1.08115
1367214085684,1.08359
1367214145684,1.08399
1367214205684,1.08532
1367214265684,1.07442
1367214325684,1.07446
1367214385684,1.06144
1367214445684,1.06702
1367214505684,1.05597
1367214565684,1.05045
1367214625684,1.03969
1367214685684,1.04498
1367214745684,1.04747
1367214805684,1.07195
1367214865684,1.07888
1367214925684,1.09522
1367214985684,1.10101
1367215045684,1.09474
1367215105684,1.09526
1367215165684,1.08589
1367215225694,1.08639
1367215285694,1.06696
1367215345694,1.06566
1367215405694,1.04659
1367215465694,1.05197
1367215525694,1.05291
1367215585694,1.03785
1367215645694,1.03449
1367215705694,1.02907
1367215765694,1.00883
1367215825694,1.01365
1367215885694,1.00164
1367215945694,0.994130
1367216005694,0.998959
1367216065694,0.993927
1367216125694,0.992083
1367216185694,0.985792
1367216245694,0.987133
1367216305694,0.992102
1367216365694,0.990906
1367216425694,0.988929
1367216485694,0.979446
1367216545694,0.977564
1367216605694,0.980721
1367216665694,0.975785
1367216725694,0.973629
1367216785694,0.973902
1367216845694,0.971982
1367216905694,0.965653
1367216965694,0.965619
1367217025694,0.960950
1367217085694,0.971254
1367217145694,0.967362
1367217205694,0.968838
1367217265694,0.960829
1367217325694,0.961299
1367217385694,0.964082
1367217445694,0.967086
1367217505694,0.969723
1367217565694,0.958278
1367217625694,0.969693
1367217685694,0.967470
1367217745694,0.972088
1367217805694,0.973148
1367217865694,0.970479
1367217925694,0.968225
1367217985694,0.969379
1367218045694,0.971437
1367218105694,0.969251
1367218165694,0.956121
1367218225694,0.959418
1367218285694,0.966621
1367218345694,0.961199
1367218405694,0.962828
1367218465694,0.959024
1367218525694,0.946731
1367218585694,0.956257
1367218645694,0.962069
1367218705694,0.960627
1367218765694,0.951415
1367218825704,0.955712
1367218885704,0.946783
1367218945704,0.955630
1367219005704,0.959103
1367219065704,0.959731
1367219125704,0.951109
1367219185704,0.960193
1367219245704,0.957066
1367219305704,0.960088
1367219365704,0.954491
1367219425704,0.955211
1367219485704,0.956684
1367219545704,0.956252
1367219605704,0.963321
1367219665704,0.958623
1367219725704,0.958032
1367219785704,0.960163
1367219845704,0.966124
1367219905704,0.962042
1367219965704,0.961444
1367220025704,0.962257
1367220085704,0.965282
1367220145704,0.955958
1367220205704,0.963179
1367220265704,0.957621
1367220325704,0.956734
1367220385704,0.963162
1367220445704,0.956759
1367220505704,0.958943
1367220565704,0.958586
1367220625704,0.954881
1367220685704,0.957720
1367220745704,0.956073
1367220805704,0.946904
1367220865704,0.959849
1367220925704,0.955741
1367220985704,0.958471
1367221045704,0.958750
1367221105704,0.958179
1367221165704,0.964677
1367221225704,0.958306
1367221285704,0.962350
1367221345704,0.967409
1367221405704,0.965679
1367221465704,0.974120
1367221525704,0.964754
1367221585704,0.964602
1367221645704,0.971731
1367221705704,0.969378
1367221765704,0.969548
1367221825704,0.976137
1367221885704,0.971070
1367221945704,0.971865
1367222005704,0.967393
1367222065704,0.979491
1367222125704,0.978626
1367222185704,0.972889
1367222245704,0.978091
1367222305704,0.969574
1367222365704,0.970502
1367222425715,0.973909
1367222485715,0.980846
1367222545715,0.991983
1367222605715,0.988843
1367222665715,0.989343
1367222725715,0.989010
1367222785715,0.973054
1367222845715,0.975262
1367222905715,0.971713
1367222965715,0.961219
1367223025715,0.966658
1367223085715,0.961265
1367223145715,0.962591
1367223205715,0.958349
1367223265715,0.963841
1367223325715,0.964495
1367223385715,0.962311
1367223445715,0.964821
1367223505715,0.960905
1367223565715,0.974238
1367223625715,0.972147
1367223685715,0.970919
1367223745715,0.968318
1367223805715,0.971738
1367223865715,0.966158
1367223925715,0.966420
1367223985715,0.966712
1367224045715,0.967887
1367224105715,0.965873
1367224165715,0.976619
1367224225715,0.978108
1367224285715,0.967536
1367224345715,0.973590
1367224405715,0.985886
1367224465715,0.979147
1367224525715,0.983142
1367224585715,0.979262
1367224645715,0.982903
1367224705715,0.991639
1367224765715,0.985111
1367224825715,0.986171
1367224885715,0.997485
1367224945715,0.994261
1367225005715,0.990803
1367225065715,1.00556
1367225125715,1.00246
1367225185715,1.00076
1367225245715,1.00041
1367225305715,1.01294
1367225365715,1.01178
1367225425715,1.01605
1367225485715,1.02062
1367225545715,1.02250
1367225605715,1.02604
1367225665715,1.02204
1367225725715,1.01368
1367225785715,1.01683
1367225845715,1.02742
1367225905715,1.02110
1367225965715,1.02036
1367226025725,1.02703
1367226085725,1.02342
1367226145725,1.03200
1367226205725,1.03345
1367226265725,1.02912
1367226325725,1.02541
1367226385725,1.02627
1367226445725,1.02687
1367226505725,1.01661
1367226565725,1.02611
1367226625725,1.02127
1367226685725,1.01409
1367226745725,1.01580
1367226805725,1.00604
1367226865725,1.01419
1367226925725,0.997598
1367226985725,1.01031
1367227045725,1.00865
1367227105725,1.00017
1367227165725,1.00399
1367227225725,1.00109
1367227285725,0.996098
1367227345725,0.994489
1367227405725,0.995089
1367227465725,0.990900
1367227525725,0.987450
1367227585725,0.991527
1367227645725,0.984633
1367227705725,0.968996
1367227765725,0.992558
1367227825725,0.983419
1367227885725,0.983294
1367227945725,0.977396
1367228005725,0.976467
1367228065725,0.977142
1367228125725,0.979137
1367228185725,0.977937
1367228245725,0.977115
1367228305725,0.975341
1367228365725,0.978706
1367228425725,0.978662
1367228485725,0.982037
1367228545725,0.974477
1367228605725,0.982292
1367228665725,0.982080
1367228725725,0.985933
1367228785725,0.988451
1367228845725,0.993792
1367228905725,0.991915
1367228965725,0.994186
1367229025725,0.990049
1367229085725,0.990802
1367229145725,0.990878
1367229205725,0.979782
1367229265725,0.988457
1367229325725,0.975792
1367229385725,0.978291
1367229445725,0.965937
1367229505725,0.977097
1367229565725,0.974077
1367229625735,0.985787
1367229685735,0.980971
1367229745735,0.975752
1367229805735,0.974845
1367229865735,0.969284
1367229925735,0.967108
1367229985735,0.963178
1367230045735,0.961387
1367230105735,0.960181
1367230165735,0.966150
1367230225735,0.963352
1367230285735,0.970740
1367230345735,0.981732
1367230405735,0.975512
1367230465735,0.966649
1367230525735,0.962939
1367230585735,0.961723
1367230645735,0.968480
1367230705735,0.968380
1367230765735,0.965963
1367230825735,0.960022
1367230885735,0.966663
1367230945735,0.967336
1367231005735,0.971477
1367231065735,0.976984
1367231125735,0.985114
1367231185735,0.986259
1367231245735,0.990457
1367231305735,0.998971
1367231365735,0.998053
1367231425735,0.991253
1367231485735,1.00421
1367231545735,1.00178
1367231605735,1.00421
1367231665735,0.999345
1367231725735,1.00177
1367231785735,1.00165
1367231845735,1.00462
1367231905735,1.00445
1367231965735,1.00048
1367232025735,1.00023
1367232085735,0.994039
1367232145735,1.00730
1367232205735,1.00631
1367232265735,1.00387
1367232325735,1.00934
1367232385735,1.01474
1367232445735,1.01171
1367232505735,1.01176
1367232565735,1.01089
1367232625735,1.02145
1367232685735,1.01408
1367232745735,1.00201
1367232805735,1.00402
1367232865735,1.01351
1367232925735,1.01269
1367232985735,1.00177
1367233045735,0.997665
1367233105735,0.998840
1367233165735,0.995786
1367233225745,0.995298
1367233285745,0.990825
1367233345745,0.995237
1367233405745,0.992638
1367233465745,0.992072
1367233525745,0.988959
1367233585745,0.994470
1367233645745,0.993652
1367233705745,0.978252
1367233765745,0.988038
1367233825745,0.982811
1367233885745,0.981532
1367233945745,0.982589
1367234005745,0.979519
1367234065745,0.976137
1367234125745,0.979132
1367234185745,0.983676
1367234245745,0.992550
1367234305745,0.975497
1367234365745,0.982718
1367234425745,0.982733
1367234485745,0.987309
1367234545745,0.981593
1367234605745,0.988720
1367234665745,0.982830
1367234725745,0.987494
1367234785745,0.981324
1367234845745,0.984354
1367234905745,0.985277
1367234965745,0.982477
1367235025745,0.982964
1367235085745,0.986474
1367235145745,0.982190
1367235205745,0.986272
1367235265745,0.987443
1367235325745,0.981703
1367235385745,0.984945
1367235445745,0.983082
1367235505745,0.977448
1367235565745,0.983574
1367235625745,0.982137
1367235685745,0.975124
1367235745745,0.983357
1367235805745,0.975354
1367235865745,0.972960
1367235925745,0.972883
1367235985745,0.971810
1367236045745,0.972626
1367236105745,0.970864
1367236165745,0.970139
1367236225745,0.965184
1367236285745,0.964140
1367236345745,0.967350
1367236405745,0.969920
1367236465745,0.965715
1367236525745,0.958245
1367236585745,0.961637
1367236645745,0.964011
1367236705745,0.966317
1367236765745,0.960945
1367236825755,0.965741
1367236885755,0.960688
1367236945755,0.961631
1367237005755,0.963325
1367237065755,0.961749
1367237125755,0.970466
1367237185755,0.960772
1367237245755,0.963603
1367237305755,0.964194
1367237365755,0.961723
1367237425755,0.959427
1367237485755,0.963924
1367237545755,0.955725
1367237605755,0.977861
1367237665755,0.964967
1367237725755,0.961563
1367237785755,0.963274
1367237845755,0.965079
1367237905755,0.958732
1367237965755,0.973954
1367238025755,0.981023
1367238085755,0.977004
1367238145755,0.969740
1367238205755,0.974206
1367238265755,0.970016
1367238325755,0.968373
1367238385755,0.974968
1367238445755,0.973916
1367238505755,0.965728
1367238565755,0.972985
1367238625755,0.977214
1367238685755,0.977499
1367238745755,0.975881
1367238805755,0.981924
1367238865755,0.989086
1367238925755,0.994322
1367238985755,1.00020
1367239045755,1.00154
1367239105755,0.999955
1367239165755,1.00915
1367239225755,1.01331
1367239285755,1.01141
1367239345755,1.00860
1367239405755,1.01983
1367239465755,1.00780
1367239525755,1.01584
1367239585755,1.01608
1367239645755,1.01102
1367239705755,1.01109
1367239765755,1.01926
1367239825755,1.00925
1367239885755,1.01078
1367239945755,1.00717
1367240005755,1.01248
1367240065755,0.994001
1367240125755,0.998269
1367240185755,0.997333
1367240245755,0.992027
1367240305755,0.986886
1367240365755,0.997830
1367240425765,1.00008
1367240485765,0.996731
1367240545765,0.986225
1367240605765,0.991691
1367240665765,0.989926
1367240725765,0.990601
1367240785765,0.974339
1367240845765,0.991878
1367240905765,0.978425
1367240965765,0.978655
1367241025765,0.980193
1367241085765,0.982097
1367241145765,0.972993
1367241205765,0.982368
1367241265765,0.980625
1367241325765,0.973193
1367241385765,0.966971
1367241445765,0.965336
1367241505765,0.971931
1367241565765,0.965567
1367241625765,0.967799
1367241685765,0.966220
1367241745765,0.970465
1367241805765,0.976931
1367241865765,0.975660
1367241925765,0.975248
1367241985765,0.970142
1367242045765,0.981056
1367242105765,0.983788
1367242165765,0.987885
1367242225765,0.990880
1367242285765,0.986956
1367242345765,0.984192
1367242405765,0.996945
1367242465765,0.991053
1367242525765,1.00554
1367242585765,1.00017
1367242645765,1.00043
1367242705765,0.993399
1367242765765,0.996980
1367242825765,0.997708
1367242885765,0.991814
1367242945765,1.00109
1367243005765,0.990679
1367243065765,0.998042
1367243125765,0.996575
1367243185765,0.999671
1367243245765,0.998383
1367243305765,0.989459
1367243365765,0.998897
1367243425765,1.00125
1367243485765,0.997456
1367243545765,1.00392
1367243605765,0.996590
1367243665765,0.995543
1367243725765,0.992731
1367243785765,0.984416
1367243845765,0.983019
1367243905765,0.982047
1367243965765,0.982775
1367244025775,0.983282
1367244085775,0.973301
1367244145775,0.979618
1367244205775,0.978572
1367244265775,0.969440
1367244325775,0.972314
1367244385775,0.977326
1367244445775,0.971423
1367244505775,0.977665
1367244565775,0.974190
1367244625775,0.972268
1367244685775,0.973402
1367244745775,0.969504
1367244805775,0.967350
1367244865775,0.970620
1367244925775,0.973050
1367244985775,0.971380
1367245045775,0.969476
1367245105775,0.968228
1367245165775,0.974442
1367245225775,0.966826
1367245285775,0.964282
1367245345775,0.970529
1367245405775,0.971214
1367245465775,0.968350
1367245525775,0.975806
1367245585775,0.971538
1367245645775,0.965260
1367245705775,0.970787
1367245765775,0.970905
1367245825775,0.960318
1367245885775,0.963504
1367245945775,0.970756
1367246005775,0.968283
1367246065775,0.966491
1367246125775,0.965031
1367246185775,0.968282
1367246245775,0.961037
1367246305775,0.974528
1367246365775,0.962889
1367246425775,0.970190
1367246485775,0.964890
1367246545775,0.963293
1367246605775,0.965825
1367246665775,0.973448
1367246725775,0.957328
1367246785775,0.968201
1367246845775,0.961975
1367246905775,0.957061
1367246965775,0.961999
1367247025775,0.965227
1367247085775,0.957516
1367247145775,0.965526
1367247205775,0.954957
1367247265775,0.960919
1367247325775,0.968647
1367247385775,0.965265
1367247445775,0.962749
1367247505775,0.964954
1367247565775,0.962835
1367247625784,0.960972
1367247685784,0.970587
1367247745784,0.962818
1367247805785,0.975769
1367247865784,0.961760
1367247925784,0.965858
1367247985784,0.970746
1367248045784,0.968909
1367248105784,0.970808
1367248165784,0.963472
1367248225784,0.968366
1367248285784,0.973669
1367248345784,0.968109
1367248405784,0.965510
1367248465784,0.962673
1367248525784,0.962502
1367248585784,0.955412
1367248645784,0.970826
1367248705784,0.963991
1367248765784,0.969078
1367248825784,0.962117
1367248885784,0.960881
1367248945784,0.963247
1367249005784,0.966608
1367249065784,0.960613
1367249125784,0.962267
1367249185785,0.966460
1367249245784,0.964027
1367249305784,0.952870
1367249365784,0.961033
1367249425784,0.967839
1367249485784,0.961980
1367249545784,0.956592
1367249605784,0.962901
1367249665784,0.957738
1367249725784,0.959052
1367249785784,0.967346
1367249845784,0.962591
1367249905784,0.965095
1367249965784,0.968612
1367250025784,0.963786
1367250085784,0.959826
1367250145784,0.960237
1367250205784,0.964105
1367250265784,0.955252
1367250325784,0.968609
1367250385784,0.959428
1367250445784,0.965469
1367250505785,0.963626
1367250565784,0.962560
1367250625784,0.963414
1367250685784,0.958216
1367250745784,0.950197
1367250805784,0.964131
1367250865784,0.965626
1367250925784,0.955187
1367250985784,0.954739
1367251045784,0.953585
1367251105784,0.950176
1367251165784,0.957357
1367251225794,0.956851
1367251285794,0.961936
1367251345794,0.953249
1367251405794,0.958482
1367251465794,0.953661
1367251525794,0.962388
1367251585794,0.947843
1367251645794,0.958432
1367251705794,0.955388
1367251765794,0.950563
1367251825794,0.958467
1367251885794,0.950170
1367251945794,0.951361
1367252005794,0.955341
1367252065794,0.952883
1367252125794,0.957272
1367252185794,0.950871
1367252245794,0.959124
1367252305794,0.954264
1367252365794,0.963513
1367252425794,0.962112
1367252485794,0.957434
1367252545794,0.957208
1367252605794,0.960182
1367252665794,0.962230
1367252725794,0.959498
1367252785794,0.955547
1367252845794,0.953024
1367252905794,0.956528
1367252965794,0.958012
1367253025794,0.954999
1367253085794,0.953945
1367253145794,0.960190
1367253205794,0.956090
1367253265794,0.953682
1367253325794,0.953552
1367253385794,0.960204
1367253445794,0.964259
1367253505794,0.948335
1367253565794,0.961914
1367253625794,0.963731
1367253685794,0.961472
1367253745794,0.966037
1367253805794,0.970229
1367253865794,0.965837
1367253925794,0.968951
1367253985794,0.977837
1367254045794,0.979954
1367254105794,0.975577
1367254165794,0.972256
1367254225794,0.966157
1367254285794,0.972336
1367254345794,0.969547
1367254405794,0.972942
1367254465794,0.962683
1367254525794,0.980256
1367254585794,0.975495
1367254645794,0.978880
1367254705794,0.982828
1367254765794,0.977940
1367254825804,0.992535
1367254885804,0.988994
1367254945804,0.994920
1367255005804,0.997037
1367255065804,0.985296
1367255125804,0.985526
1367255185804,0.985969
1367255245804,0.974932
1367255305804,0.975973
1367255365804,0.978048
1367255425804,0.975235
1367255485804,0.970610
1367255545804,0.981669
1367255605804,0.980604
1367255665804,0.985049
1367255725804,0.983895
1367255785804,0.982160
1367255845804,0.977414
1367255905804,0.980946
1367255965804,0.981577
1367256025804,0.976220
1367256085804,0.975775
1367256145804,0.974596
1367256205804,0.972245
1367256265804,0.974165
1367256325804,0.982718
1367256385804,0.978181
1367256445804,0.983111
1367256505804,0.975521
1367256565804,0.966731
1367256625804,0.972314
1367256685804,0.969691
1367256745804,0.977503
1367256805804,0.969346
1367256865804,0.970561
1367256925804,0.971081
1367256985804,0.968820
1367257045804,0.968397
1367257105804,0.965780
1367257165804,0.971738